Terminal Aerodrome Forecast
Issued by NWS

Home | Current Version | Previous Version | Graphics & Text | Print | Product List | Glossary On
Versions: 1 2 3 4 5 6 7 8 9 10 11 12 13 14 15 16 17 18 19 20 21 22 23 24 25 26 27 28 29 30 31 32 33 34 35 36 37 38 39 40 41 42
000
FTUS43 KLOT 060525
TAFORD
TAF
KORD 060525Z 0606/0712 03006KT 3SM BR OVC002
     FM061300 VRB04KT 4SM BR OVC007
     FM061600 11005KT P6SM SCT020 BKN040
     FM061900 10008KT P6SM BKN050
     FM070300 12005KT 6SM HZ FEW004 SCT050=

USA.gov is the U.S. government's official web portal to all federal, state and local government web resources and services.